Content
SEND FEEDBACK

Daily
Averages
Monthly
Summary
United States of America

BIG WATER, UTAH


Home > North America > United States > Utah
Elevation: 4166 feet     Latitude: 37 05N     Longitude: 111 40W

WEATHER
 
SELECT A DAY
Number of Records: 194,777;   Date Range: 1/1/95 - 8/12/14
 
SHARE

PRINT THIS DATA

[ ← Previous Day ]
WEATHER ALMANAC - FEBRUARY 13, 2013
[ Next Day → ]
[ °C ]   °F
Weather ElementAverageHighLow
Temperature36.3 °F46.9 °F (3:53 pm)26.6 °F (6:53 am)
Dewpoint20 °F24.1 °F (7:53 pm)17.1 °F (1:53 pm)
Humidity53.7 %74 % (6:53 am)31 % (2:53 pm)
Barometer30.24 in30.31 in (7:53 am)30.18 in (4:53 pm)
Wind Speed1.9 mph5.8 mph (11:53 am)
Weather ElementAverage
Visibility9.4 mi
Wind DirectionNE (50.4 °)

Weather ElementTotal
Precipitation---
Heating Degree Days28.3 (Base 65)
Averaged from 23 records on February 13, 2013
WEATHER CONDITIONS BREAKOUT
WIND DIRECTION BREAKOUT
WEATHER BY HOUR - FEBRUARY 13, 2013
[ °C ]   °F
Local TimeTemperatureDewpointHumidityBarometerVisibilityWind DirectionWind SpeedGust SpeedPrecipitationEventsConditions
1:53 AM28.9 °F19.9 °F69 %30.27 in10.0 miCalmClear
2:53 AM28.0 °F19.0 °F69 %30.26 in8.0 miCalmClear
3:53 AM28.9 °F19.0 °F67 %30.25 in10.0 miSSW (210°)3.5 mphClear
4:53 AM28.0 °F18.0 °F66 %30.26 in8.0 miCalmClear
5:53 AM27.0 °F19.0 °F72 %30.27 in9.0 miCalmClear
6:53 AM26.6 °F19.4 °F74 %30.24 in10.0 miCalmClear
7:53 AM28.0 °F19.0 °F69 %30.31 in7.0 miCalmClear
8:53 AM33.1 °F21.0 °F61 %30.30 in10.0 miCalmClear
9:53 AM35.1 °F21.9 °F59 %30.31 in10.0 miENE (70°)3.5 mphClear
10:53 AM37.0 °F18.0 °F46 %30.30 in10.0 miCalmClear
11:53 AM41.0 °F19.0 °F41 %30.28 in10.0 miEast (80°)5.8 mphClear
12:53 PM42.1 °F18.0 °F38 %30.25 in10.0 miCalmClear
1:53 PM45.0 °F17.1 °F33 %30.22 in10.0 miVariable3.5 mphClear
2:53 PM46.0 °F17.1 °F31 %30.21 in10.0 miNNE (30°)4.6 mphClear
3:53 PM46.9 °F19.0 °F33 %30.19 in10.0 miENE (60°)5.8 mphClear
4:53 PM46.9 °F19.9 °F34 %30.18 in10.0 miSSE (150°)3.5 mphClear
5:53 PM45.0 °F19.9 °F37 %30.18 in10.0 miCalmClear
6:53 PM42.1 °F21.9 °F45 %30.20 in10.0 miVariable3.5 mphClear
7:53 PM37.9 °F24.1 °F57 %30.21 in10.0 miEast (90°)3.5 mphClear
8:53 PM37.0 °F23.0 °F57 %30.20 in9.0 miWSW (240°)3.5 mphClear
9:53 PM37.0 °F21.9 °F54 %30.20 in10.0 miCalmClear
10:53 PM34.0 °F21.9 °F61 %30.20 in10.0 miSW (230°)3.5 mphClear
11:53 PM34.0 °F21.9 °F61 %30.19 in5.0 miCalmHaze
Hourly data recorded from KPGA, located miles away from Big Water, Utah







STORIES FROM OUR PARTNERS